www.pogodaiklimat.ru

Погода и климат >> Архив погоды >> Россия >> Якутия >> Мирный


АРХИВ ПОГОДЫ в Мирном

Время (UTC), дата Ветер
(напр.,м/с)
 
Видим.   Явления Облачность Т
(С)
Тd
(С)
f
(%)
Тe
(С)
Тes
(С)
Комфортность P
(гПа)
Po
(гПа)
Тmin
(С)
Tmax
(С)
R
(мм)
R24
(мм)
S
(см)
15 13.09 В 2 50 км 10/0
[Ac trans Ci fib]
-2.8 -5.9 79 -7 -7 1001.8 957.9
18 13.09 Ю 4 4000 м ливневой снег 10/8 600 м
[Cb cap Ac und]
-2.3 -2.3 100 -9 -9 999.7 955.8
21 13.09 Ю 4 50 км {ливн. осадки} 10/5 600 м
[Cb cap Ac trans Ci fib]
-2.8 -2.8 100 -9 -9 999.2 955.4
00 14.09 Ю 4 50 км в посл. час ливневой снег 10/5 360 м
[Cb cap Ci fib]
-2.8 -2.8 100 -9 -9 998.3 954.5 -3.5 2 1
03 14.09 ЮЗ 3 50 км {ливн. осадки} 10/10 270 м
[Cb cap]
-1.2 -1.2 100 -6 -6 997.9 954.3
06 14.09 ЮЗ 3 50 км в посл. час ливневой снег 9/6 600 м
[Cb cap Ac As]
+1.0 -1.9 81 -3 -3 998.3 955.1
09 14.09 З 3 50 км {ливн. осадки} 9/4 1000 м
[Cb cap Ac As]
+3.3 -7.0 47 0 0 999.2 956.2
12 14.09 ЮЗ 2 50 км 10/0
[Ac trans Cs]
+0.2 -5.7 65 -3 -3 1000.9 957.4 +3.8 0.9
15 14.09 Ю 3 50 км 10/3 1000 м
[Sc Cs]
-0.5 -5.4 69 -5 -5 1000.6 957.0
18 14.09 Ю 3 4000 м слаб. ливневой снег 10/4 600 м
[Cb cap Ac As]
-1.6 -1.6 100 -7 -7 1000.5 956.7
21 14.09 Ю 2 4000 м слаб. ливневой снег 10/4 600 м
[Cb cap Ac As]
-2.2 -2.2 100 -6 -6 1000.1 956.2
00 15.09 Ю 2 4000 м слаб. ливневой снег 10/10 540 м
[Cb cap]
-1.6 -1.5 100 -6 -6 999.8 956.0 -2.3 1 1
03 15.09 ЮВ 1 10 км слаб. ливневой снег 10/10 270 м
[Cb cap]
+0.1 -0.2 98 -2 -2 1000.2 956.7
06 15.09 СВ 1 10 км в посл. час ливневой снег 10/8 210 м
[Cb cap Ci fib]
+1.6 +1.1 96 -0 0 1000.9 957.6
09 15.09 С 1 50 км {ливн. осадки} 10/6 700 м
[Cb cap Ac trans Ci fib]
+1.8 +1.8 100 -0 0 1002.1 958.9
12 15.09 З 2 50 км {ливн. осадки} 9/6 630 м
[Cb cap Ac As]
-0.3 -0.3 100 -4 -4 1003.3 959.5 +1.9 1
15 15.09 ЮЗ 2 10 км слаб. ливневой снег 9/8 540 м
[Cb cap Ac As]
-0.4 -0.4 100 -4 -4 1003.4 959.6
18 15.09 ЮЗ 2 4000 м слаб. ливневой снег 10/10 500 м
[Cb cap]
-0.6 -0.6 100 -5 -5 1002.9 959.1
21 15.09 Ю 2 4000 м слаб. ливневой снег 10/10 150 м
[Cb cap]
-0.3 -0.3 100 -4 -4 1002.8 959.0
00 16.09 ЮЗ 2 4000 м слаб. ливневой снег 10/10 150 м
[Cb cap]
0.0 0.0 100 -4 -4 1003.9 960.3 -0.7 3 1
03 16.09 З 3 10 км слаб. ливневой снег 10/10 240 м
[Cb cap]
+1.3 +1.3 100 -3 -3 1005.7 962.1
06 16.09 З 3 10 км в посл. час ливневой снег 10/8 180 м
[Cb cap Ci fib]
+3.6 +1.8 88 -0 0 1007.3 964.1
09 16.09 С 3
{10}
50 км {ливн. осадки} 10/8 840 м
[Cb cap Ci fib]
+2.0 -1.4 78 -2 -2 1010.9 967.4
12 16.09 СЗ 2 50 км {ливн. осадки} 10/0
[Ac trans Ci fib]
-0.9 -0.9 100 -5 -5 1014.1 969.9 +3.8 0.6
15 16.09 З 3 50 км 10/0
[Ci fib]
-1.0 -3.8 81 -6 -6 1015.9 971.5
18 16.09 З 3 50 км 10/0
[Ci fib]
-2.0 -2.9 94 -7 -7 1017.2 972.6
21 16.09 ЮЗ 1 50 км 10/0
[Ci fib]
-3.4 -3.5 99 -6 -6 1018.6 973.8
00 17.09 ЮЗ 1 50 км 8/0
[Ac trans Ci fib]
-2.7 -2.8 99 -5 -4 1019.4 974.6 -4.5
03 17.09 ЮЗ 1 50 км 10/3 1000 м
[Cu hum Ci fib]
+3.3 -3.4 61 +2 +5 1018.7 974.9
06 17.09 ЮЗ 3 50 км 10/0
[Ac As]
+3.9 -2.0 65 +1 +2 1018.6 974.8
09 17.09 ЮЗ 3 50 км 10/3 600 м
[Cb cap Ac As]
+3.2 -0.9 74 -1 -0 1018.9 975.1
12 17.09 З 1 50 км {ливн. осадки} 10/5 960 м
[Cb cap Ac und]
+1.2 +1.2 100 -1 -1 1019.3 975.2 +4.7 0.0
15 17.09 ЮЗ 1 50 км 10/6 960 м
[Cb cap Ac und]
+0.4 +0.4 100 -2 -2 1019.4 975.1
18 17.09 ЮЗ 1 50 км 10/4 600 м
[Cb cap Ac und]
-0.1 -0.1 100 -2 -2 1019.1 974.8
21 17.09 ЮЗ 1 2000 м дымка 10/5 90 м
[St Ac und]
-0.7 -0.7 100 -3 -3 1018.8 974.4
00 18.09 штиль 0 2000 м дымка {ливн. осадки} 10/4 90 м
[St Ac trans Ci fib]
-0.3 -0.3 100 -2 -1 1018.4 974.0 -1.0 0.6
03 18.09 Ю 2 4000 м дымка 10/6 90 м
[St Ac As]
+1.4 +1.4 100 -2 -2 1017.1 973.1
06 18.09 Ю 3 10 км 10/10 270 м
[Cb cap]
+3.6 +0.4 80 -0 -0 1014.8 971.1
09 18.09 В 2 4000 м слаб. ливневой дождь со снегом 10/10 240 м
[Cb cap]
+1.6 +1.6 100 -2 -2 1012.9 969.1
12 18.09 СВ 4 2000 м слаб. ливневой снег 10/10 90 м
[Cb cap]
+0.1 +0.1 100 -6 -6 1012.1 968.1 +4.6 5
15 18.09 СВ 5
{11}
2000 м слаб. ливневой снег 10/10 180 м
[Cb cap]
0.0 0.0 100 -6 -6 1010.6 966.7
18 18.09 С 4
{12}
50 км {ливн. осадки} 3/3 300 м
[Cb cap]
-1.5 -1.4 100 -8 -8 1010.6 966.4
21 18.09 С 4 50 км 3/0
[Ci fib]
-3.0 -3.1 99 -9 -9 1011.8 967.3
00 19.09 С 3 50 км 3/0
[Ac trans]
-2.4 -2.4 100 -8 -7 1013.2 968.7 -4.3 5 2
03 19.09 С 4 50 км 3/0
[Ci fib]
+2.6 -0.7 79 -2 0 1014.3 970.6
06 19.09 С 3 50 км 5/5 600 м
[Cu med, cong]
+4.6 -2.1 62 +1 +3 1015.2 971.7
09 19.09 СЗ 4 50 км 3/0
[Ac cuf]
+4.5 -4.4 52 +1 +1 1016.8 973.3
12 19.09 З 2 50 км 3/0
[Ac trans]
+0.2 -3.8 74 -3 -3 1018.5 974.2 +5.2
15 19.09 З 3 50 км 4/0
[Ac trans]
-1.0 -4.9 75 -6 -6 1019.6 975.0
18 19.09 З 3 50 км 4/0
[Ac trans Ci fib]
-1.5 -5.6 74 -6 -6 1019.6 975.0
21 19.09 ЮЗ 1 50 км 6/4 1000 м
[Sc Ac trans]
-4.3 -4.2 100 -7 -7 1019.7 974.6
00 20.09 Ю 2 50 км 10/3 1000 м
[Sc Ci fib]
-2.5 -2.8 98 -7 -6 1017.8 973.2 -5.1 1
03 20.09 Ю 4 50 км 10/9 600 м
[Sc Ci fib]
+2.0 -2.0 75 -3 -3 1015.3 971.5
06 20.09 Ю 5 50 км 10/9 480 м
[Cb cap Ci fib]
+2.6 -1.0 77 -3 -2 1012.9 969.2
09 20.09 ЮВ 2 10 км слаб. ливневой дождь 10/10 300 м
[Cb cap]
+1.8 +1.8 100 -2 -2 1010.6 967.1
12 20.09 Ю 2 1000 м слаб. морось 10/10 90 м
[St]
+2.2 +2.2 100 -1 -1 1009.4 965.9 +3.2 2

 

Местоположение метеостанции Мирный (Якутия, Россия): широта 62.53 долгота 113.80 высота над уровнем моря 357 м.

В архиве по умолчанию представлена погода в Мирном за последнюю неделю. Архивные данные за месяц целиком и за предыдущие месяцы, начиная с января 2011 года, Вы можете получить, выбрав интересующий диапазон дат из раскрывающегося списка и нажав кнопку "Ввод!".


*Определитесь, кто Вы:
робот инопланетянин человек

Внимание! Время в таблицах - всемирное. Для получения местного времени необходимо прибавить поправку, которая равна 9 ч.

Смотрите также архив погоды в соседних городах и на ближайших метеорологических станциях:

Погода в Чернышевском (Якутия, Россия) (90 км)
Погода в Дорожном (Якутия, Россия) (109 км)
Погода в Крестяхе (Якутия, Россия) (122 км)
Погода в Туой-Хае (Якутия, Россия) (133 км)
Погода в Сунтаре (Якутия, Россия) (200 км)
Погода в Ленске (Якутия, Россия) (208 км)
Погода в Хабардино (Якутия, Россия) (239 км)
Погода в Нюрбе (Якутия, Россия) (243 км)
Погода в Чумпуруке (Якутия, Россия) (244 км)
Погода в Комаке (Якутия, Россия) (275 км)

Пояснения к столбцам:

Ветер - указаны скорость ветра в м/с - средняя за 10 мин, порывы в срок и между сроками (в фигурных скобках) и направление, откуда дует ветер: С - северный, СВ - северо-восточный, В - восточный, ЮВ - юго-восточный, Ю - южный, ЮЗ - юго-западный, З - западный, СЗ - северо-западный.
Видимость - горизонтальная дальность видимости в метрах или километрах. При видимости от 1 до 10 км при отсутствии осадков обычно наблюдается дымка, при ухудшении видимости до 1 км и менее - туман. В сухую погоду видимость может ухудшаться дымом, пылью или мглою.
Явления - указаны атмосферные явления, наблюдавшиеся в срок или в последний час перед сроком; фигурными скобками обозначены явления, наблюдавшиеся между сроками (за 1-3 часа до срока); квадратными скобками обозначены град или гололедные отложения с указанием их диаметра в мм.
Облачность - указаны через наклонную черту общая и нижняя облачность в баллах и высота нижней границы облаков в метрах; квадратными скобками обозначены формы облаков: Ci - перистые, Cs - перисто-слоистые, Cc - перисто-кучевые, Ac - высококучевые, As - высокослоистые, Sc - слоисто-кучевые, Ns - слоисто-дождевые, Cu - кучевые, Cb - кучево-дождевые. Подробнее классификацию облаков см. в Атласе облаков (PDF).
T - Температура воздуха - температура, измеренная на высоте 2 м над землей.
Td - Температура точки росы - температура, при понижении до которой содержащийся в воздухе водяной пар достигнет насыщения.
f - Относительная влажность воздуха - влажноcть воздуха, измеренная на высоте 2 м над землей.
Te - Эффективная температура - температура, которую ощущает одетый по сезону человек в тени. Характеристика душности погоды. При расчете учитывается влияние влажности воздуха и скорости ветра на теплоощущения человека.
Tes - Эффективная температура на солнце - температура, которую ощущает человек, с поправкой на солнечный нагрев. Характеристика знойности погоды. Зависит от высоты солнца над горизонтом, облачности и скорости ветра. Ночью, в пасмурную погоду, а также при ветре 12 м/с и более поправка равна нулю.
P - Атмосферное давление - приведенное к уровню моря атмосферное давление.
Po - Атмосферное давление - измеренное на уровне метеостанции атмосферное давление.
Tmin - Минимальная температура - минимум температуры воздуха на высоте 2 м над землей.
Tmax - Максимальная температура - максимум температуры воздуха на высоте 2 м над землей.
R - Количество осадков - Количество выпавших осадков за период времени, мм. При наведении курсора мыши на число - период времени, за который выпало указанное количество осадков.
R24 - Количество осадков - Количество выпавших осадков за 24 часа, мм.
S - Снежный покров - Высота снежного покрова, см. При наведении курсора мыши на число - состояние снежного покрова и степень покрытия местности в баллах.